Location: *
(50.3440°N, 18.6237°E)
Time: 17:52:59
(UTC+00:00)

BREEZE-M DEB (TANK) - Pass Details

Date: 30 November 2020
Orbit: 305 x 17162 km, 49.4° (Epoch: 22 January)

Event Time Altitude Azimuth Distance (km) Brightness Sun altitude
Rises 16:38:50 0° 261° (W) 2,108 7.6 -17.3°
Reaches altitude 10° 16:40:34 10° 259° (W) 1,187 5.9 -17.6°
Maximum altitude 16:42:39 71° 175° (S) 364 1.8 -17.9°
Enters shadow 16:42:46 69° 147° (SSE) 373 1.8 -17.9°
